Regional Weather Roundup
Issued by NWS New Orleans/Baton Rouge, LA

Home | Current Version | Previous Version | Text Only | Print | Product List | Glossary On
Versions: 1 2 3 4 5 6 7 8 9 10 11 12 13 14 15 16 17 18 19 20 21 22 23 24 25 26 27 28 29 30 31 32 33 34 35 36 37 38 39 40 41 42 43 44 45 46 47 48 49 50
463
ASUS44 KLIX 230205
RWRLIX
NEW ORLEANS REGIONAL WEATHER ROUNDUP
NATIONAL WEATHER SERVICE NEW ORLEANS LA
900 PM CDT MON SEP 22 2014

NOTE: "FAIR" INDICATES FEW OR NO CLOUDS BELOW 12,000 FEET WITH NO
      SIGNIFICANT WEATHER AND/OR OBSTRUCTIONS TO VISIBILITY.
      SKY/WX - SKY CONDITION AND SIGNIFICANT WEATHER.
      TMP - AIR TEMPERATURE.     DP    - DEWPOINT TEMPERATURE.
      RH  - RELATIVE HUMIDITY.   PRES  - PRESSURE.
      HI  - HEAT INDEX.          WCI   - WIND CHILL INDEX.

*  THESE STATIONS ARE NOT NWS OR FAA STATIONS AND ARE NOT UNDER
   NWS QUALITY CONTROL.

LAZ038-040-048-061>063-065>067-069-230300-
SOUTHEAST LOUISIANA

CITY           SKY/WX    TMP DP  RH WIND       PRES   REMARKS
N.O. AUDUBON     N/A     82  61  49 MISG        N/A
N.O. INTL ARPT CLEAR     81  57  43 NE21      30.03R
N.O. LAKEFRONT CLEAR     82  61  48 NE22      30.04R
N.O. DOWNTOWN*   N/A     82  57  42 N8        30.04R
SLIDELL        CLEAR     69  60  73 N5        30.04R
BATON ROUGE    CLEAR     72  56  57 VRB5      30.06R
BOOTHVILLE     PTCLDY    83  72  69 NE12G18   30.01R
BELLE CHASSE   MOCLDY    79  58  48 NE9       30.02R
BOGALUSA*        N/A     67  59  73 CALM      30.07R
GALLIANO*      NOT AVBL
NEW ROADS*       N/A     70  59  69 N7        30.07R
GONZALES*        N/A     74  64  72 N3        30.05R
HAMMOND*       CLEAR     70  55  60 N5        30.08R
HOUMA*         CLEAR     77  55  47 N9        30.02R
PORT FOURCHON* MOCLDY    82  73  74 NE12G18   30.03R

$$

MSZ070-080>082-230300-
SOUTHERN MISSISSIPPI

CITY           SKY/WX    TMP DP  RH WIND       PRES   REMARKS
MCCOMB         CLEAR     72  54  53 CALM      30.09R
GULFPORT       CLEAR     75  57  53 N6        30.03R
BILOXI         CLEAR     76  61  59 N8        30.03R
PASCAGOULA     CLEAR     67  65  93 N3        30.03R
STENNIS ARPT*  CLEAR     70  57  64 N6        30.04R

$$

COASTAL OBSERVATIONS
LAKE AND NEARSHORE STATIONS

STATION/POSITION TIME  TEMP    WIND        PRES    WAVE
                       AIR SEA DIR/SP/G            HT/PER
                 (UTC) (F)     (DEG/KT/KT) (MB)    (FT/S)
PASCAGOULA       0200   78      40/  6/  9 1016.2
WAVELAND YACHT   0200   78      10/ 10/ 12 1016.5
GRAND ISLE       0200   83 84   50/  9/ 14 1016.5
SOUTHWEST PASS   0200   83 89   40/  8/  9 1015.9
NEW CANAL        0200   82 82   30/ 19/ 22 1017.1
SHELL BEACH      0200   82 80   10/ 21/ 23 1016.4

OFFSHORE STATIONS

STATION/POSITION TIME  TEMP    WIND        PRES    WAVE
                       AIR SEA DIR/SP/G            HT/PER
                 (UTC) (F)     (DEG/KT/KT) (MB)    (FT/S)
64 S DAUPHIN ISL 0101   79 84   60/  8/  8 1015.9    2/ 3

$$




USA.gov is the U.S. government's official web portal to all federal, state and local government web resources and services.